Doylestown, PA

6:46 AM EST on December 13, 2017 (GMT -0500)
Doylestown

Weather History for KDYL - October, 2013

Change the Weather History Date:

Thursday, October 17, 2013

  Actual Average (KTTN) Record (KTTN)
Temperature  
Mean Temperature 64 °F -  
Max Temperature 71 °F 61 °F 87 °F (1938)
Min Temperature 59 °F 42 °F 32 °F (1992)
Growing Degree Days 14 (Base 50)    
Moisture  
Dew Point 61 °F    
Average Humidity 91    
Maximum Humidity 100    
Minimum Humidity 71    
Precipitation  
Precipitation 0.04 in - - ()
Sea Level Pressure  
Sea Level Pressure 29.83 in    
Wind  
Wind Speed 3 mph (South)    
Max Wind Speed 10 mph    
Max Gust Speed 20 mph    
Visibility 10 miles    
Events Rain    
Averages and records for this station are not official NWS values.
T = Trace of Precipitation, MM = Missing Value Source: NWS Daily Summary

Daily Weather History Graph

Daily Weather History Graph

Search for Another Location

Airport or City:

Trip Planner

Search our weather history database for the weather conditions in past years. The results will help you decide how hot, cold, wet, or windy it might be!

Date:

Astronomy

Oct. 17, 2013 Rise Set
Actual Time 7:13 AM EDT 6:17 PM EDT
Civil Twilight 6:46 AM EDT 6:44 PM EDT
Nautical Twilight 6:14 AM EDT 7:16 PM EDT
Astronomical Twilight 5:42 AM EDT 7:47 PM EDT
Moon 5:30 PM EDT (10/17) 5:43 AM EDT (10/17)
Length of Visible Light 11h 58m
Length of Day
11h 03m
Waxing Gibbous, 98% of the Moon is Illuminated
Oct 17
Waxing Gibbous
Oct 18
Full
Oct 26
Last Quarter
Nov 3
New
Nov 10
First Quarter

Hourly Weather History & Observations

Time (EDT) Temp. Dew Point Humidity Pressure Visibility Wind Dir Wind Speed Gust Speed Precip Events Conditions
12:41 AM 59.0 °F 59.0 °F 100% 29.91 in 10.0 mi Calm Calm - N/A   Overcast
12:54 AM 59.0 °F 59.0 °F 100% 29.91 in 10.0 mi Calm Calm - N/A   Overcast
1:54 AM 59.0 °F 59.0 °F 100% 29.91 in 10.0 mi South 3.5 mph - N/A   Overcast
2:10 AM 59.0 °F 59.0 °F 100% 29.91 in 8.0 mi Calm Calm - N/A   Overcast
2:52 AM 60.8 °F 60.8 °F 100% 29.90 in 9.0 mi South 3.5 mph - N/A   Overcast
2:54 AM 60.1 °F 60.1 °F 100% 29.90 in 9.0 mi South 3.5 mph - N/A   Overcast
3:54 AM 60.1 °F 60.1 °F 100% 29.88 in 9.0 mi Calm Calm - N/A   Overcast
4:54 AM 60.1 °F 60.1 °F 100% 29.88 in 10.0 mi SW 4.6 mph - N/A   Overcast
5:54 AM 60.1 °F 60.1 °F 100% 29.88 in 9.0 mi Calm Calm - 0.00 in   Overcast
6:54 AM 61.0 °F 61.0 °F 100% 29.89 in 10.0 mi SSW 5.8 mph - N/A   Overcast
7:54 AM 61.0 °F 61.0 °F 100% 29.90 in 9.0 mi Variable 4.6 mph - N/A   Overcast
8:54 AM 62.1 °F 60.1 °F 93% 29.91 in 10.0 mi WSW 4.6 mph - N/A   Overcast
9:54 AM 62.1 °F 61.0 °F 96% 29.91 in 10.0 mi Calm Calm - N/A   Overcast
10:38 AM 64.4 °F 60.8 °F 88% 29.90 in 10.0 mi Calm Calm - N/A   Overcast
10:54 AM 64.9 °F 61.0 °F 87% 29.90 in 10.0 mi Calm Calm - N/A   Overcast
11:22 AM 64.4 °F 60.8 °F 88% 29.90 in 10.0 mi Calm Calm - N/A   Overcast
11:54 AM 64.9 °F 60.1 °F 84% 29.89 in 10.0 mi Calm Calm - N/A   Overcast
12:51 PM 68.0 °F 62.6 °F 83% 29.87 in 10.0 mi SSE 3.5 mph - N/A   Partly Cloudy
12:54 PM 68.0 °F 61.0 °F 78% 29.86 in 10.0 mi Calm Calm - N/A   Scattered Clouds
1:23 PM 68.0 °F 60.8 °F 78% 29.85 in 10.0 mi Calm Calm - N/A   Mostly Cloudy
1:54 PM 68.0 °F 60.1 °F 76% 29.84 in 10.0 mi South 4.6 mph - N/A   Scattered Clouds
2:26 PM 69.8 °F 60.8 °F 73% 29.83 in 10.0 mi South 8.1 mph - N/A   Mostly Cloudy
2:54 PM 70.0 °F 60.1 °F 71% 29.81 in 10.0 mi Variable 4.6 mph - N/A   Mostly Cloudy
3:16 PM 69.8 °F 60.8 °F 73% 29.81 in 10.0 mi South 4.6 mph - N/A   Overcast
3:54 PM 69.1 °F 60.1 °F 73% 29.80 in 10.0 mi SSE 6.9 mph - N/A   Overcast
4:54 PM 68.0 °F 61.0 °F 78% 29.78 in 10.0 mi SSE 4.6 mph - N/A   Overcast
5:54 PM 66.9 °F 61.0 °F 81% 29.77 in 10.0 mi SSE 3.5 mph - N/A   Partly Cloudy
6:54 PM 64.9 °F 62.1 °F 90% 29.75 in 10.0 mi Variable 3.5 mph - 0.00 in Rain Light Rain
7:30 PM 64.4 °F 62.6 °F 94% 29.74 in 8.0 mi SSE 4.6 mph - 0.02 in Rain Light Rain
7:44 PM 62.6 °F 62.6 °F 100% 29.74 in 10.0 mi SE 4.6 mph - 0.03 in Rain Light Rain
7:54 PM 63.0 °F 63.0 °F 100% 29.73 in 10.0 mi SSE 4.6 mph - 0.03 in Rain Light Rain
8:54 PM 63.0 °F 63.0 °F 100% 29.73 in 9.0 mi SSE 6.9 mph - 0.00 in   Mostly Cloudy
9:54 PM 64.0 °F 63.0 °F 96% 29.72 in 10.0 mi SSE 5.8 mph - N/A   Overcast
10:54 PM 64.9 °F 63.0 °F 93% 29.71 in 10.0 mi SSW 6.9 mph - 0.00 in   Overcast
11:15 PM 64.4 °F 62.6 °F 94% 29.71 in 10.0 mi Variable 5.8 mph - N/A   Overcast
11:54 PM 64.9 °F 63.0 °F 93% 29.72 in 10.0 mi WSW 10.4 mph 19.6 mph 0.01 in   Overcast